Theta_e
341 342 344 345 346 346 346 346 344 343 342 340 339 337 334 331 328 324 322 321 320 320 320 317 314 313 305
336 330 335 339 341 341 341 339 336 337 338 337 334 337 333 330 328 325 322 320 319 319 317 313 310 308 302
337 333 329 334 335 335 334 331 330 333 333 332 331 334 334 330 327 324 320 317 314 315 313 310 306 299 300
326 337 337 337 335 335 334 332 332 331 331 332 327 329 329 328 329 324 319 314 307 301 300 303 298 299 301
314 331 336 339 337 335 336 335 333 332 331 330 328 326 323 318 316 314 311 308 305 303 302 300 299 299 300
310 324 332 332 331 329 332 332 333 331 328 327 327 326 325 321 313 311 309 308 307 306 305 303 300 300 301
311 327 326 325 325 325 329 332 332 330 328 328 327 325 323 321 317 311 309 309 308 308 306 303 301 299 299
317 321 320 321 322 322 323 326 327 328 326 324 321 319 318 317 316 313 309 310 310 309 307 305 301 299 298
316 315 317 317 317 317 318 320 321 322 321 319 317 315 315 314 313 311 308 307 306 306 303 299 298 296 294
312 312 312 312 312 313 314 315 316 316 316 315 314 312 312 310 308 304 302 299 299 299 296 295 294 291 290
307 307 308 307 308 310 311 311 311 311 311 311 309 308 306 303 300 296 294 296 298 296 295 293 291 289 288
302 302 302 300 299 301 302 305 306 305 305 305 303 302 300 294 291 291 292 292 294 295 294 291 289 287 285
299 299 299 298 297 296 297 300 300 299 297 297 296 296 295 291 289 289 289 293 288 290 290 289 288 286 283
300 297 296 295 290 292 293 294 295 293 292 292 292 291 289 288 287 287 287 285 284 284 291 289 285 287 285
297 292 290 290 291 291 290 290 289 289 288 289 288 287 285 285 284 284 285 284 282 282 283 290 285 286 282
294 292 293 290 287 289 288 288 286 286 286 286 286 285 285 284 283 283 284 283 282 281 281 281 279 281 277
Wind_Speed
8 8 7 7 7 8 8 10 10 11 11 11 10 11 13 14 15 16 16 16 16 17 17 17 17 17 8
5 6 6 7 7 8 8 8 8 8 9 8 7 9 10 10 13 15 15 16 18 18 17 17 17 16 8
5 5 6 7 7 7 7 9 8 4 5 6 6 10 10 10 11 14 15 16 16 17 17 16 13 4 6
1 3 4 5 5 5 5 6 4 5 4 5 7 10 12 13 12 13 14 14 10 5 5 11 5 6 6
2 1 1 2 2 2 5 6 5 4 4 4 4 3 3 7 4 5 6 4 6 5 5 6 6 6 5
1 0 2 2 3 2 2 3 4 4 4 4 3 3 3 4 5 4 3 5 6 7 6 8 8 6 5
3 2 3 3 3 3 3 5 5 6 5 4 4 3 4 4 4 4 4 5 5 7 7 9 10 8 8
4 4 4 4 4 3 3 4 5 6 6 5 5 4 4 4 4 3 4 4 5 6 8 10 10 9 9
6 4 4 3 3 3 4 5 7 6 7 7 5 5 4 4 6 4 4 4 6 7 10 9 8 9 9
5 4 4 3 3 3 4 4 6 7 7 6 6 5 4 4 4 4 4 6 6 7 7 6 7 8 8
5 5 6 5 4 2 4 5 6 7 6 7 6 5 5 5 4 3 4 4 7 7 8 7 6 7 6
4 6 5 5 4 4 4 3 6 5 7 8 6 7 5 5 5 4 6 5 4 7 8 8 6 5 5
4 4 3 5 3 3 4 5 8 5 5 7 6 6 5 5 5 5 4 10 5 3 5 5 4 5 6
3 3 3 4 3 4 3 5 6 6 5 5 6 6 6 6 6 4 3 4 3 4 3 3 2 2 2
6 7 6 6 4 3 3 3 3 5 5 6 6 6 6 5 5 4 5 7 5 4 6 3 3 3 1
9 6 12 5 5 3 2 3 4 5 6 6 6 7 7 5 6 5 3 4 5 5 3 6 6 4 3
Wind_Direction
158 163 165 156 151 151 148 140 138 134 132 126 117 106 98 96 93 85 80 76 73 74 74 70 65 60 49
169 177 179 168 165 157 148 141 137 140 134 125 116 98 87 77 85 87 79 73 69 67 67 65 58 51 42
174 182 196 187 171 162 149 142 139 135 132 127 111 94 81 63 62 69 68 65 66 68 69 70 67 49 50
17 166 204 170 174 166 148 150 148 141 131 114 111 106 91 74 75 78 73 71 63 63 59 60 54 42 41
332 268 272 219 121 134 156 165 152 123 119 113 115 106 106 89 70 66 75 70 79 75 69 68 66 57 44
268 185 146 127 113 116 155 141 145 134 125 129 124 128 108 92 88 74 74 72 72 65 72 72 68 61 48
173 127 100 101 96 117 116 136 141 146 130 129 116 99 90 89 92 84 80 78 70 73 66 78 67 59 57
147 119 118 111 119 116 95 101 105 125 124 119 104 94 93 90 84 86 94 95 84 84 84 82 77 67 57
118 124 113 106 93 98 96 88 97 107 114 115 111 99 96 98 101 91 76 68 81 71 72 73 74 66 64
128 126 109 101 101 97 102 89 93 97 113 109 114 105 106 99 101 96 83 78 71 80 80 67 65 70 67
131 119 97 85 76 84 101 109 110 112 113 117 110 104 98 95 86 100 71 91 100 86 86 69 58 61 52
119 105 92 84 60 48 49 64 96 100 115 111 109 109 104 96 87 79 96 61 87 100 90 74 55 49 54
142 124 124 122 103 69 68 84 88 76 72 104 110 112 105 108 114 116 106 99 61 66 97 70 47 51 56
156 112 118 125 64 81 59 77 85 99 102 110 123 114 109 113 101 94 99 110 84 11 119 117 128 337 49
135 111 94 82 91 88 59 86 78 104 99 109 106 114 110 107 120 123 114 112 125 32 47 127 111 210 17
152 140 156 147 156 139 125 117 95 94 101 107 110 109 109 113 107 108 112 108 114 124 64 37 53 102 139